Milford, UT

6:09 PM MDT on March 30, 2017 (GMT -0600)
Milford Municipal

Weather History for KMLF - November, 2011

Change the Weather History Date:

Tuesday, November 8, 2011

  Actual Average Record
Temperature  
Mean Temperature 29 °F -  
Max Temperature 39 °F 51 °F 73 °F (2006)
Min Temperature 19 °F 25 °F 15 °F (2000)
Degree Days  
Heating Degree Days 36    
Moisture  
Dew Point 21 °F    
Average Humidity 74    
Maximum Humidity 89    
Minimum Humidity 43    
Precipitation  
Precipitation 0.00 in - - ()
Sea Level Pressure  
Sea Level Pressure 30.36 in    
Wind  
Wind Speed 7 mph (North)    
Max Wind Speed 12 mph    
Max Gust Speed 20 mph    
Visibility 10 miles    
Events      
Averages and records for this station are not official NWS values.
T = Trace of Precipitation, MM = Missing Value Source: NWS Daily Summary

Daily Weather History Graph

Daily Weather History Graph

Search for Another Location

Airport or City:

Trip Planner

Search our weather history database for the weather conditions in past years. The results will help you decide how hot, cold, wet, or windy it might be!

Date:

Astronomy

Nov. 08, 2011 Rise Set
Actual Time 7:05 AM MST 5:25 PM MST
Civil Twilight 6:37 AM MST 5:53 PM MST
Nautical Twilight 6:06 AM MST 6:24 PM MST
Astronomical Twilight 5:35 AM MST 6:55 PM MST
Moon 4:06 PM MST (11/8) 5:09 AM MST (11/8)
Length of Visible Light 11h 15m
Length of Day
10h 19m
Waxing Gibbous, 96% of the Moon is Illuminated
Nov 8
Waxing Gibbous
Nov 10
Full
Nov 18
Last Quarter
Nov 24
New
Dec 2
First Quarter

Hourly Weather History & Observations

Time (MST) Temp. Windchill Dew Point Humidity Pressure Visibility Wind Dir Wind Speed Gust Speed Precip Events Conditions
12:52 AM 30.0 °F 22.4 °F 24.1 °F 79% 30.21 in 10.0 mi NNW 8.1 mph - N/A   Overcast
1:52 AM 27.0 °F 18.0 °F 23.0 °F 85% 30.23 in 10.0 mi NNW 9.2 mph - N/A   Clear
2:52 AM 25.0 °F - 21.0 °F 85% 30.25 in 10.0 mi Calm Calm - N/A   Clear
3:52 AM 21.9 °F 14.5 °F 19.0 °F 89% 30.26 in 10.0 mi North 5.8 mph - N/A   Clear
4:52 AM 21.9 °F 14.5 °F 19.0 °F 89% 30.27 in 10.0 mi North 5.8 mph - N/A   Clear
5:52 AM 21.0 °F 13.4 °F 17.1 °F 85% 30.30 in 10.0 mi North 5.8 mph - N/A   Clear
6:52 AM 19.9 °F - 16.0 °F 85% 30.33 in 10.0 mi Calm Calm - N/A   Clear
7:52 AM 21.9 °F - 19.0 °F 89% 30.38 in 10.0 mi Calm Calm - N/A   Clear
8:52 AM 28.0 °F 24.2 °F 21.9 °F 78% 30.36 in 10.0 mi North 3.5 mph - N/A   Clear
9:52 AM 32.0 °F 24.8 °F 23.0 °F 69% 30.35 in 10.0 mi North 8.1 mph - N/A   Clear
10:52 AM 35.1 °F 26.9 °F 24.1 °F 64% 30.34 in 10.0 mi North 11.5 mph - N/A   Clear
11:52 AM 37.9 °F 30.5 °F 24.1 °F 57% 30.33 in 10.0 mi NNE 11.5 mph - N/A   Clear
12:52 PM 39.0 °F 31.8 °F 23.0 °F 53% 30.32 in 10.0 mi North 11.5 mph - N/A   Clear
1:52 PM 39.9 °F 32.9 °F 21.0 °F 47% 30.32 in 10.0 mi NNE 11.5 mph 19.6 mph N/A   Clear
2:52 PM 39.9 °F 33.4 °F 19.9 °F 45% 30.32 in 10.0 mi North 10.4 mph 18.4 mph N/A   Clear
3:52 PM 39.9 °F 33.4 °F 19.0 °F 43% 30.35 in 10.0 mi NNE 10.4 mph - N/A   Clear
4:52 PM 37.0 °F 30.4 °F 19.0 °F 48% 30.36 in 10.0 mi NNE 9.2 mph - N/A   Clear
5:52 PM 28.9 °F 21.9 °F 21.0 °F 72% 30.42 in 10.0 mi NNE 6.9 mph - N/A   Clear
6:52 PM 27.0 °F 21.6 °F 21.0 °F 78% 30.45 in 10.0 mi North 4.6 mph - N/A   Clear
7:00 PM - - - N/A% - - North - - N/A   Unknown
7:52 PM 27.0 °F 18.0 °F 21.9 °F 81% 30.46 in 10.0 mi NNW 9.2 mph - N/A   Clear
8:52 PM 25.0 °F 20.7 °F 19.9 °F 81% 30.47 in 10.0 mi North 3.5 mph - N/A   Clear
9:52 PM 23.0 °F 17.0 °F 19.9 °F 88% 30.48 in 10.0 mi NNE 4.6 mph - N/A   Clear
10:52 PM 23.0 °F 18.4 °F 19.0 °F 85% 30.49 in 10.0 mi NNE 3.5 mph - N/A   Clear
11:52 PM 21.9 °F 15.7 °F 19.0 °F 89% 30.50 in 10.0 mi NNE 4.6 mph - N/A   Clear